Regional Weather Roundup
Issued by NWS

Home | Current Version | Previous Version | Text Only | Print | Product List | Glossary Off
Versions: 1 2 3 4 5 6 7 8 9 10 11 12 13 14 15 16 17 18 19 20 21 22 23 24 25 26 27 28 29 30 31 32 33 34 35 36 37 38 39 40 41 42 43 44 45 46 47 48 49 50

000
ASUS43 KLOT 170310
RWRIL

ILLINOIS REGIONAL WEATHER ROUNDUP
NATIONAL WEATHER SERVICE CHICAGO/ROMEOVILLE IL
1000 PM CDT TUE SEP 16 2014

NOTE: "FAIR" INDICATES FEW OR NO CLOUDS BELOW 12,000 FEET WITH NO
SIGNIFICANT WEATHER AND/OR OBSTRUCTIONS TO VISIBILITY.

* THESE STATIONS ARE NOT UNDER NWS QUALITY CONTROL. THEY ALSO MAY NOT
  REPORT WEATHER SUCH AS PRECIPITATION OR FOG.

ILZ001-002-007-009-015-016-024-170400-
NORTHWEST ILLINOIS

CITY           SKY/WX    TMP DP  RH WIND       PRES   REMARKS
MOLINE         CLEAR     48  46  93 CALM      30.09S
STERLING*      CLEAR     46  43  87 SE5       30.09S
SAVANNA*       CLEAR     51  47  86 CALM      30.08F
$$

ILZ003-004-008-010-011-017-018-170400-
NORTH CENTRAL ILLINOIS

CITY           SKY/WX    TMP DP  RH WIND       PRES   REMARKS
ROCKFORD       CLEAR     50  45  83 CALM      30.11F
FREEPORT*      CLEAR     45  43  93 CALM      30.11S
ROCHELLE*      CLEAR     46  43  91 CALM      30.10S
DE KALB*       CLEAR     49  43  79 CALM      30.11S
PERU*          CLEAR     52  46  82 CALM      30.10S
$$

ILZ005-006-012>014-019>023-170400-
NORTHEAST ILLINOIS

CITY           SKY/WX    TMP DP  RH WIND       PRES   REMARKS
CHICAGO-OHARE  CLEAR     56  48  74 CALM      30.10S
CHICAGO-MIDWAY CLEAR     60  51  72 E3        30.10S
AURORA         CLEAR     47  42  83 CALM      30.10S
LANSING*       CLEAR     50  47  90 CALM      30.11R
JOLIET*        CLEAR     47  46  93 CALM      30.11S
WAUKEGAN       CLEAR     46  44  93 CALM      30.09F
DUPAGE AIRPORT CLEAR     50  44  80 CALM      30.09S
KANKAKEE*      CLEAR     47  47  97 CALM      30.11S
WHEELING       CLEAR     52  47  83 CALM      30.11S
MORRIS*        CLEAR     49  49  99 CALM      30.09F
ROMEOVILLE*    CLEAR     55  45  71 W3        30.10S
NORTHERLY ISL    N/A     57  52  83 NW1         N/A
$$

LMZ740>746-170400-
SOUTHERN LAKE MICHIGAN

STATION/POSITION SKY/WX   TEMP    WIND        PRES    VSBY  WAVE
                          AIR SEA DIR/SP/G                  HT/PER
                          (F)     (DEG/KT/KT) (MB)    (MI)  (FT/S)
SOUTHERN BUOY              59 64  190/  6/  6 1019.3F         1
WAUKEGAN HARBOR            59     170/  6/  7   N/A
HARRISON CRIB              60     100/  6/  7   N/A
BURNHAM HARBOR             56     360/  3       N/A
CALUMET HARBOR             60     110/  3/  4 1017.9S
MICHIGAN CITY              56      80/  6/  8   N/A
MICHIGAN CITY 6N           59 65  110/  8/ 10   N/A           1/ 4
ST. JOSEPH                 59 66   90/  6/  8   N/A           1/ 4
$$

ILZ025>027-034>036-040-047-049-050-058-095>099-170400-
WEST-CENTRAL ILLINOIS

CITY           SKY/WX    TMP DP  RH WIND       PRES   REMARKS
QUINCY         CLEAR     57  50  77 S7        30.09R
GALESBURG*     CLEAR     47  44  88 CALM      30.09S
MACOMB*        CLEAR     49  46  90 CALM      30.10F
JACKSONVILLE*  CLEAR     56  52  85 S3        30.10F
PITTSFIELD*    CLEAR     54  51  89 CALM      30.11R
$$

ILZ028>032-037-038-041>044-048-051>054-059>061-170400-
CENTRAL ILLINOIS

CITY           SKY/WX    TMP DP  RH WIND       PRES   REMARKS
PONTIAC        CLEAR     50  48  93 CALM      30.10F
DECATUR        CLEAR     53  49  86 SW6       30.11S
PEORIA         CLEAR     53  48  83 NE3       30.10S
LACON*         CLEAR     47  45  93 CALM      30.09S
LINCOLN*       CLEAR     55  48  78 CALM      30.09S
SPRINGFIELD    CLEAR     52  48  86 SW5       30.10F
TAYLORVILLE    CLEAR     50  48  93 SW5       30.11S
$$

ILZ033-039-045-046-055>057-062-063-170400-
EAST-CENTRAL ILLINOIS

CITY           SKY/WX    TMP DP  RH WIND       PRES   REMARKS
CHAMPAIGN      CLEAR     51  47  86 SE6       30.10S
DANVILLE*      CLEAR     50  48  93 CALM      30.08S
RANTOUL*       CLEAR     55  47  74 CALM      30.11S
MATTOON        CLEAR     54  51  90 S5        30.10S
PARIS*         CLEAR     47  47  99 CALM      30.12R
$$

ILZ079-100>102-170400-
SOUTHWEST ILLINOIS

CITY           SKY/WX    TMP DP  RH WIND       PRES   REMARKS
ALTON          CLEAR     52  50  93 NW3       30.11
BELLEVILLE     CLEAR     54  52  94 CALM      30.10S FOG
CAHOKIA*       CLEAR     53  52  96 CALM      30.10F
SPARTA*        CLEAR     49  49  98 CALM      30.11S
$$

ILZ064>066-069>071-074>076-080>082-084>086-088>090-092>094-170400-
SOUTH-CENTRAL ILLINOIS

CITY           SKY/WX    TMP DP  RH WIND       PRES   REMARKS
CARBONDALE     CLEAR     51  49  92 E5        30.11S
CAIRO*         CLEAR     56  52  86 N3        30.10S
EFFINGHAM*     PTCLDY    51  48  92 CALM      30.11S FOG
MARION         CLEAR     52  52 100 CALM      30.12S
MT. VERNON     CLEAR     52  46  82 CALM      30.12S
CENTRALIA*     CLEAR     53  51  92 CALM      30.11S
SALEM*         MOCLDY    55  54  94 CALM      30.12S
METROPOLIS*    CLEAR     54  52  95 CALM      30.09F
$$

ILZ067-068-072-073-078-083-087-091-170400-
SOUTHEAST ILLINOIS

CITY           SKY/WX    TMP DP  RH WIND       PRES   REMARKS
LAWRENCEVILLE  CLEAR     52  50  93 CALM      30.12R
FAIRFIELD*     CLEAR    N/A N/A N/A CALM      30.11F FOG
HARRISBURG*    CLEAR     51  51 100 CALM      30.12S FOG
ROBINSON*      CLEAR     51  50  99 W3        30.12S
CARMI*         CLEAR     52  51  98 CALM      30.11S FOG
$$

ABBREVIATIONS USED IN REMARKS
   TC - TEMPERATURE IN CELSIUS
  WCI - WIND CHILL INDEX
   HX - HEAT INDEX
  VSB - VISIBILITY
$$



USA.gov is the U.S. government's official web portal to all federal, state and local government web resources and services.